Wind_Speed
14 12 9 8 6 6 6 7 8 6 3 4 5 9 11 11 10 10 10 11 12 12 12 14 16 17 17 16 14 13 12 11 11 9 8 7 6 4 3 3 5 7 8 10 11 12 13 13 12 12 13 12 12 11 10 11 12 13 12 12 12 13 12 11 11 11 11 11 11 10 10 9 7 6 6 7 7 7 6 5 5 5 6 7 8
14 11 9 7 4 5 5 7 8 5 4 5 9 12 12 10 10 9 9 12 13 13 13 15 16 15 15 16 15 15 14 14 13 12 11 9 7 5 4 4 4 6 7 8 9 10 12 12 12 13 13 12 12 10 10 12 13 13 13 12 12 12 12 11 11 11 11 12 12 10 9 8 8 8 7 8 8 7 7 6 6 6 7 8 7
13 10 8 4 3 4 5 8 9 6 6 7 12 13 11 11 11 10 11 11 12 15 16 17 18 17 16 16 16 15 15 15 14 13 12 10 8 6 5 5 5 6 7 7 8 9 10 11 12 11 11 11 12 11 10 12 13 14 13 13 13 13 12 12 12 12 12 13 12 10 10 9 9 9 9 9 9 8 7 7 8 8 8 7 6
12 9 6 3 2 3 5 9 10 7 7 9 12 12 11 12 13 13 12 11 13 17 19 19 18 18 17 17 16 15 14 14 13 13 12 11 9 8 6 5 4 4 6 6 7 8 9 10 10 10 10 11 11 11 10 12 14 14 13 13 14 13 12 12 13 13 13 12 11 10 10 9 9 10 11 10 10 9 7 7 7 7 7 7 6
9 8 5 1 1 4 7 10 9 8 8 9 11 11 11 13 14 14 13 13 15 19 20 19 18 18 18 17 16 15 13 12 12 11 11 10 9 8 7 6 5 4 4 5 5 6 8 9 9 10 11 11 11 11 11 12 13 13 12 12 13 13 13 13 13 13 12 12 11 11 10 9 10 12 12 12 10 9 8 7 5 4 5 7 7
8 6 4 2 2 6 9 10 10 10 10 11 12 11 13 14 14 14 14 15 18 20 21 19 17 16 15 14 13 11 10 10 11 10 9 8 7 6 5 5 5 5 3 3 4 5 7 8 9 10 11 12 12 12 12 13 13 13 13 13 13 13 13 13 12 12 11 11 12 12 11 11 12 12 12 12 10 9 9 8 6 5 7 8 8
10 8 6 4 4 6 9 11 10 11 12 13 13 13 15 15 14 14 15 17 20 21 21 19 17 15 14 12 10 9 8 8 8 8 7 6 5 4 3 2 3 4 3 2 2 4 7 9 10 11 11 11 13 13 12 13 13 14 14 13 12 12 13 13 13 12 12 12 13 14 14 14 14 12 11 11 9 9 10 9 8 7 7 7 7
11 8 7 7 6 6 8 10 10 11 12 12 12 15 17 16 15 14 15 17 19 19 19 18 16 15 14 12 10 9 8 6 6 6 5 4 4 3 2 1 1 2 2 1 1 2 4 6 8 10 10 11 11 11 11 12 13 14 13 12 12 13 14 14 14 13 13 13 14 14 15 15 14 12 12 11 9 9 8 8 7 7 7 7 6
9 7 7 8 8 8 10 10 10 11 12 11 12 16 17 16 16 14 14 16 16 16 16 16 15 15 13 11 9 8 7 5 5 4 4 3 2 1 0 0 1 1 1 1 1 1 1 1 4 7 9 11 10 10 10 11 12 12 12 12 13 14 14 14 14 13 12 13 13 13 14 14 14 13 13 12 10 8 7 7 7 6 7 7 5
10 9 9 11 11 12 12 11 9 11 13 12 13 17 18 17 16 15 15 16 16 16 16 14 14 14 12 10 8 7 6 5 3 2 1 0 1 3 3 4 3 3 3 3 2 2 2 1 1 4 7 9 10 11 11 11 12 12 12 12 12 13 12 12 12 12 12 13 12 12 13 13 13 12 12 12 10 9 7 7 8 7 6 6 5
12 14 15 16 16 15 14 12 11 12 14 14 14 17 18 18 17 15 15 17 17 18 17 14 14 15 13 10 9 7 6 5 3 2 2 3 4 6 7 8 7 6 5 4 3 2 1 0 0 2 4 6 9 11 12 12 13 12 11 12 12 12 12 12 12 12 13 13 12 12 13 12 11 10 10 10 9 8 7 8 9 8 6 5 5
15 19 19 18 18 17 15 14 13 13 14 14 14 16 18 18 18 16 15 17 18 19 17 16 16 15 13 12 11 9 8 6 4 3 4 5 6 7 7 7 8 8 7 6 5 4 4 2 1 2 4 5 7 8 10 12 13 12 11 11 11 11 11 11 12 12 13 12 12 13 13 13 12 11 10 8 7 7 7 8 9 8 6 5 6
19 20 18 17 18 18 17 16 15 15 15 15 15 16 18 19 19 18 16 17 18 18 17 17 16 16 14 13 12 11 9 7 6 6 7 7 8 8 7 7 7 7 7 6 5 5 6 3 1 2 4 6 7 7 7 10 11 10 9 8 7 8 10 11 13 13 13 12 13 13 13 13 13 12 11 10 9 9 8 8 8 7 6 6 8
22 20 18 18 19 19 19 19 17 17 16 16 15 16 17 19 19 19 18 18 19 18 18 18 18 17 16 15 14 12 10 8 8 9 9 9 9 9 8 6 5 5 5 5 5 6 7 5 3 2 2 4 4 6 7 8 8 7 6 6 6 7 9 11 12 12 12 12 13 13 13 13 12 11 10 11 11 10 10 8 7 8 8 8 9
21 20 20 21 21 20 20 19 16 16 16 16 17 17 18 20 20 20 20 19 19 19 18 19 19 19 18 17 15 13 12 10 9 9 9 9 9 8 7 6 5 6 5 4 4 5 7 6 4 3 2 2 3 6 7 7 7 6 6 5 4 5 6 7 8 9 9 10 11 12 12 11 10 9 9 10 11 11 10 10 8 9 8 8 9
21 22 22 23 22 21 21 19 15 15 17 17 19 19 19 19 20 20 19 18 18 18 19 20 20 20 19 18 16 15 13 11 8 8 7 8 8 7 6 5 5 6 6 5 4 5 7 6 5 5 4 3 4 6 7 7 7 7 6 5 4 3 3 4 5 6 7 7 8 9 10 9 8 8 8 9 10 11 12 12 9 7 6 6 8
22 23 22 21 23 23 23 22 18 17 18 19 19 19 19 20 20 20 18 17 18 18 19 20 19 19 19 18 17 16 15 12 9 8 7 7 7 6 5 4 2 4 6 6 5 5 6 6 6 5 5 5 5 6 7 8 8 7 6 5 4 3 2 3 3 4 5 6 7 8 9 8 8 9 9 9 11 12 12 11 9 6 4 5 7
21 21 21 21 23 25 26 25 22 20 20 19 18 19 21 21 20 19 18 18 19 18 18 19 20 19 19 18 17 17 16 12 10 8 6 6 6 6 6 4 0 2 4 6 5 5 6 6 6 6 7 7 7 7 7 8 7 6 5 3 2 2 2 2 3 4 5 6 8 9 9 10 10 10 11 11 11 12 11 9 8 4 2 5 8
18 21 22 22 25 27 27 27 25 23 23 21 19 20 21 20 20 20 20 21 21 19 19 20 21 21 20 18 17 17 14 12 10 7 6 6 6 6 6 5 1 2 4 4 5 6 6 6 7 7 8 8 8 8 8 8 8 6 5 3 2 2 2 3 4 6 7 8 9 10 11 11 10 10 10 11 10 10 9 7 6 4 2 5 7
20 23 23 23 25 27 27 27 27 26 25 23 22 22 21 20 21 22 21 22 24 23 22 22 23 22 20 18 17 16 14 12 9 6 5 5 5 5 6 5 3 3 5 5 5 6 6 6 7 7 8 9 9 8 8 8 8 6 5 4 3 3 4 6 7 7 8 9 10 11 11 11 10 10 10 9 9 9 7 6 6 6 6 6 7
22 23 23 24 27 28 28 28 28 28 26 24 24 24 23 22 24 24 22 23 25 25 25 24 24 22 20 19 18 16 14 12 8 5 4 4 5 5 5 5 4 3 7 7 6 6 6 7 8 8 8 9 8 8 8 8 7 5 4 3 3 4 5 6 7 7 8 8 9 10 11 11 10 10 10 9 9 9 8 7 7 9 8 6 6
24 25 27 29 30 29 29 28 28 28 27 25 24 25 26 26 27 27 25 24 26 27 27 27 25 22 21 20 18 16 14 10 7 5 4 5 5 5 4 4 3 3 7 9 7 7 7 8 9 9 9 9 9 9 9 9 8 6 5 4 4 4 5 5 6 6 7 8 9 9 9 9 10 10 10 10 9 9 7 7 7 8 8 7 7
25 26 27 27 26 25 26 25 26 27 25 22 22 24 27 28 27 28 27 26 25 27 29 28 26 24 21 18 17 15 12 8 6 6 6 6 5 5 4 3 2 4 8 9 8 7 9 10 10 10 9 9 9 9 9 10 9 8 6 5 5 6 6 6 7 7 8 8 9 9 8 8 8 8 9 8 7 6 6 6 7 8 9 10 11
24 24 23 21 20 22 24 23 23 24 21 19 20 23 27 28 28 28 28 25 24 28 31 30 28 25 20 16 16 14 10 7 7 7 7 6 5 5 4 2 3 5 9 11 9 9 11 11 10 10 10 9 9 9 9 10 10 9 8 7 6 6 8 8 9 9 8 8 8 8 8 8 7 7 8 7 7 7 7 7 9 10 11 12 13
24 23 21 21 22 23 22 21 22 21 19 19 20 21 23 25 26 27 26 24 25 29 29 28 27 25 20 17 16 12 9 8 8 8 8 6 5 5 4 3 4 6 8 11 11 10 11 12 10 10 10 9 9 9 9 9 10 9 9 9 8 8 8 9 9 9 8 8 8 7 7 7 7 7 7 7 7 7 8 9 10 11 11 12 13
24 23 21 22 23 21 20 20 20 17 15 16 19 21 22 21 22 23 23 22 25 27 26 24 23 21 18 17 15 12 10 10 9 9 8 6 5 5 5 5 5 6 7 9 11 11 11 12 11 10 10 9 8 8 8 9 9 9 9 9 9 9 9 8 8 8 8 8 7 7 6 6 6 6 7 7 7 8 9 10 10 12 12 12 12
23 23 24 23 22 21 21 21 19 15 11 13 19 24 24 21 19 20 20 21 23 24 24 23 21 20 17 16 15 14 12 10 10 10 9 8 6 6 5 6 7 7 7 8 10 11 11 11 11 10 10 9 8 8 8 8 8 8 9 9 10 10 10 9 8 8 7 7 6 6 6 7 7 8 9 9 10 10 11 12 13 14 15 14 14
22 22 24 23 22 21 21 20 19 17 15 17 21 22 21 18 18 19 19 20 21 22 23 21 19 19 18 17 17 15 12 11 11 10 10 9 8 7 6 7 7 8 8 8 9 10 11 11 10 10 10 10 10 9 9 9 9 9 10 10 10 10 10 10 9 9 8 7 7 8 8 10 11 12 12 12 12 12 13 14 15 16 16 17 16
23 23 23 23 21 21 21 22 23 22 22 22 23 22 19 16 17 18 17 16 16 16 17 17 14 14 15 17 19 15 13 13 12 12 12 10 9 8 7 7 7 7 7 7 8 9 10 11 11 10 10 10 10 10 10 10 10 10 10 11 11 11 11 11 11 11 11 11 11 12 12 13 15 15 15 15 14 14 15 17 17 17 17 17 18
23 23 23 23 22 23 25 27 27 26 26 26 25 24 22 19 18 18 17 16 15 13 12 11 10 11 12 15 19 17 16 16 16 15 14 12 10 9 8 7 7 7 7 6 7 8 10 10 11 11 11 12 12 12 12 13 13 12 12 13 13 14 14 14 15 15 16 16 16 16 17 17 18 17 17 17 17 18 19 19 19 19 18 18 19
22 23 23 24 25 26 28 29 29 28 29 28 26 25 25 24 23 22 20 19 16 14 12 11 11 12 12 15 19 18 17 18 18 16 15 13 12 10 9 8 7 7 8 7 7 8 9 11 11 12 12 13 14 14 15 16 16 15 16 16 17 18 18 19 19 19 20 21 21 21 21 21 21 21 21 20 21 22 22 22 21 21 21 21 22
21 23 24 26 28 29 29 29 29 30 30 29 28 27 27 26 25 23 23 22 19 16 15 13 14 15 16 18 20 19 19 18 17 15 14 13 12 11 10 9 9 9 9 9 9 9 10 12 12 13 14 15 15 16 16 17 18 17 17 19 20 22 23 23 23 24 24 25 25 25 25 25 25 25 25 25 25 25 25 25 24 24 24 25 26
23 25 27 28 29 30 30 30 30 31 31 29 29 29 28 27 25 24 24 23 22 21 19 16 17 18 19 19 19 19 19 18 17 15 15 15 14 13 12 12 11 11 10 10 10 10 11 12 12 12 14 15 16 17 18 18 19 19 19 20 22 23 23 24 25 26 27 28 28 29 29 29 29 29 29 29 28 28 27 27 26 26 27 28 29
21 26 29 30 30 29 29 29 29 29 29 28 29 29 28 26 25 25 25 24 24 23 21 20 19 20 20 20 19 19 19 20 19 18 17 17 16 15 14 13 12 12 11 11 10 10 11 12 12 13 14 14 14 16 18 19 20 21 21 22 23 23 24 24 25 26 27 28 29 30 30 31 32 33 33 33 32 31 30 29 29 29 30 31 31
17 20 23 26 29 29 29 30 30 29 29 29 29 28 26 26 25 25 25 25 25 24 23 22 21 21 21 21 21 21 21 20 20 19 18 17 16 15 14 13 12 12 12 12 11 12 13 13 14 15 16 16 16 16 17 18 19 20 21 22 23 23 24 25 25 26 27 28 29 30 30 31 32 34 35 35 35 34 32 30 31 31 32 33 32
13 16 17 18 20 22 24 24 24 25 26 26 27 27 25 25 25 25 26 26 27 26 25 23 22 22 23 24 24 24 22 21 20 19 18 17 17 16 16 15 15 15 14 14 14 14 15 15 16 17 18 18 19 19 19 20 20 21 21 22 22 22 23 24 25 25 26 27 28 29 29 29 30 32 32 33 34 34 33 32 32 33 34 34 34
12 15 17 18 16 15 17 17 15 16 17 18 19 21 22 24 25 27 27 27 26 25 23 22 22 23 23 23 24 23 23 22 21 20 19 19 19 19 18 18 17 17 17 17 18 18 18 19 19 20 21 21 21 22 22 22 22 22 23 23 24 26 27 27 28 28 28 29 29 29 30 30 30 31 31 32 33 33 34 34 34 35 35 35 36
13 14 17 20 19 17 17 17 17 17 17 17 18 19 21 23 24 23 23 21 20 19 19 20 21 22 23 23 23 23 23 22 22 22 22 21 22 21 21 21 21 21 21 21 21 22 22 23 24 24 25 26 25 25 25 25 25 26 27 27 27 29 31 31 31 31 32 33 33 33 33 33 32 33 33 33 33 33 34 36 36 36 36 37 38
15 15 17 20 24 24 22 21 22 21 20 20 20 21 21 22 22 20 18 17 16 17 18 19 20 21 23 24 24 24 23 22 22 22 23 23 23 23 23 23 23 24 24 25 26 27 27 27 28 28 29 30 30 29 29 29 30 30 31 32 32 34 35 35 35 35 35 36 36 35 35 35 35 35 35 35 35 34 35 37 38 37 37 38 39
15 15 16 19 23 25 25 24 23 21 20 19 19 19 20 22 23 23 22 22 21 21 21 21 21 20 21 22 23 23 23 23 24 25 25 25 25 25 25 26 26 27 28 29 30 31 31 31 31 32 33 34 34 34 34 35 35 36 37 38 39 40 40 39 38 38 38 39 39 39 38 38 37 37 36 36 36 35 36 38 38 37 38 40 39
14 15 16 18 19 20 21 20 18 18 17 17 18 18 19 20 22 23 24 25 24 24 24 24 23 21 20 21 22 23 24 25 26 27 28 28 28 29 29 30 31 32 32 33 34 35 35 36 36 37 38 38 39 39 39 40 41 41 42 43 44 44 44 43 42 41 41 40 40 39 38 38 37 36 36 36 36 35 36 36 36 36 39 39 36
15 16 16 16 17 17 18 18 17 17 17 17 18 18 19 21 23 24 25 25 25 25 25 25 25 25 24 24 25 26 27 28 29 30 31 32 33 34 35 36 37 38 38 39 40 41 42 42 42 42 42 42 43 43 44 44 45 45 45 46 46 46 45 44 44 43 42 41 39 38 37 37 35 35 35 35 34 34 34 34 34 34 37 37 32
15 15 16 16 16 16 16 16 16 16 16 17 18 19 21 22 23 23 24 24 25 25 25 26 27 28 29 30 31 32 33 34 35 35 36 38 39 39 40 41 42 43 44 44 45 45 45 45 45 45 45 46 47 47 47 48 48 48 48 48 48 47 45 44 44 44 41 39 37 36 35 34 33 33 33 33 33 33 33 33 32 32 34 36 33
14 14 15 16 16 16 16 17 17 17 18 19 20 21 22 23 24 24 24 25 26 26 27 27 28 29 30 32 33 35 36 37 37 38 38 39 40 41 41 42 43 44 45 46 46 47 47 47 48 48 47 48 49 50 51 51 50 50 49 48 47 46 44 44 44 42 39 37 35 33 32 32 32 32 32 32 33 33 32 33 32 30 32 35 34
12 14 15 15 15 15 16 17 17 18 18 19 20 21 21 22 22 23 24 25 26 26 27 29 29 30 31 32 33 34 35 36 37 38 39 40 41 42 43 44 45 46 47 48 49 50 50 51 51 51 50 50 50 51 52 52 51 50 49 47 46 44 44 43 43 41 38 36 34 34 33 34 34 33 32 32 32 32 32 31 29 28 31 35 36
14 14 15 15 15 14 15 16 17 17 17 18 19 19 19 20 20 22 23 24 25 26 28 29 30 31 32 33 34 35 35 36 38 39 40 41 43 44 45 46 47 48 49 50 50 51 51 52 52 52 52 51 51 50 51 51 50 49 48 47 46 45 44 43 43 42 40 37 36 36 36 36 35 34 34 34 33 32 30 27 25 26 32 37 37
14 14 15 15 15 14 15 15 15 15 16 17 17 18 19 20 21 22 24 25 26 28 29 31 32 33 34 35 36 36 37 38 39 40 41 42 43 44 45 45 46 47 47 48 49 49 50 50 50 50 51 50 50 50 49 50 50 50 49 49 48 46 45 45 45 45 43 41 39 39 38 37 37 37 38 38 36 34 29 25 24 27 34 37 35
14 15 16 16 15 15 15 15 14 15 15 16 17 18 18 20 21 21 22 24 26 27 28 30 31 32 33 34 35 36 37 37 38 39 40 41 41 42 43 43 44 44 44 44 44 45 46 47 48 48 49 49 48 47 47 48 49 50 50 49 49 48 47 45 44 43 41 41 41 40 38 38 39 40 40 38 36 32 28 25 26 30 35 37 36
16 17 18 18 17 16 15 15 15 15 14 15 16 18 18 19 19 19 20 22 23 24 25 26 27 28 29 30 31 32 33 33 34 35 35 36 37 38 38 38 39 39 40 40 41 41 41 42 43 44 45 46 45 44 43 44 46 47 47 47 48 47 46 45 44 42 40 41 42 40 39 38 38 37 37 35 33 30 27 27 29 33 37 38 38
18 18 19 19 18 18 17 16 16 16 16 16 17 19 19 18 17 17 19 20 21 22 23 24 24 25 26 27 27 28 29 30 30 30 30 31 31 32 33 33 33 33 34 35 37 38 38 38 38 39 40 42 42 41 39 39 40 42 43 43 44 44 43 43 43 42 42 42 41 39 38 37 35 34 32 31 31 29 28 29 32 35 38 40 41
16 16 16 18 18 18 17 17 16 16 17 18 18 18 17 16 16 17 18 19 20 21 23 23 24 24 25 25 26 26 27 27 27 27 27 27 27 27 29 30 30 30 31 32 33 34 34 35 35 35 36 37 37 37 36 36 37 39 39 39 40 39 39 39 39 39 40 41 39 37 36 35 34 33 32 31 31 29 29 31 35 38 41 43 42
Wind_Direction
221 230 243 264 282 288 277 265 264 257 205 187 178 176 177 178 182 177 168 163 161 161 155 153 158 159 159 157 154 151 148 145 140 133 122 117 124 134 146 162 178 188 196 200 198 200 207 212 209 204 203 201 200 199 195 194 194 191 184 180 189 191 183 187 194 198 206 207 200 199 207 215 225 230 222 217 223 231 234 238 247 251 257 262 261
217 225 243 260 285 292 268 251 258 244 187 180 169 169 176 182 188 182 170 162 161 166 163 160 159 155 152 147 145 143 137 131 124 115 110 109 115 123 125 128 153 176 189 195 194 196 204 209 208 204 204 201 201 203 197 196 200 196 188 187 194 195 193 197 202 206 212 209 199 197 210 219 224 231 235 236 233 231 236 245 253 258 264 267 269
218 227 242 255 286 277 249 243 249 220 182 177 166 168 180 186 183 173 167 165 166 169 168 165 159 150 144 142 140 140 135 128 120 113 110 108 108 113 120 125 139 166 184 192 190 193 199 204 207 205 202 202 203 203 199 200 204 197 191 193 194 196 200 202 205 209 211 211 207 206 215 220 223 231 243 250 245 243 249 255 258 258 261 266 268
217 225 235 249 280 249 232 241 241 209 181 173 166 171 184 185 176 167 167 168 170 170 167 164 158 150 146 145 143 140 134 126 121 118 115 113 110 108 112 125 141 162 180 189 191 194 196 201 208 206 202 205 207 205 201 201 203 200 197 196 194 199 206 206 209 211 210 214 218 221 222 221 228 239 248 253 253 254 255 260 268 268 262 258 256
218 221 226 238 253 220 227 237 224 190 171 166 167 174 181 181 174 170 171 169 169 168 166 163 159 155 152 149 146 142 136 129 122 118 116 114 112 109 108 115 131 150 168 180 188 195 198 205 212 209 207 209 209 206 198 196 203 208 206 200 197 203 210 211 213 214 213 217 222 226 226 224 233 242 247 252 253 251 248 249 253 250 247 245 241
200 209 205 181 210 219 227 229 208 180 166 164 169 170 173 176 175 175 175 170 168 167 166 164 160 156 153 153 152 147 140 130 122 117 114 112 112 113 111 109 114 121 136 164 184 196 202 208 213 212 208 204 205 206 197 192 200 210 211 206 203 206 212 215 218 219 221 224 224 224 225 223 230 239 247 253 251 242 239 238 232 232 241 243 239
209 206 187 188 214 221 228 225 204 179 168 167 169 167 167 171 174 176 176 172 170 170 169 167 162 157 158 163 162 150 141 134 129 121 112 112 116 117 118 105 95 94 95 115 166 192 202 207 212 215 213 207 206 205 198 193 196 205 211 210 210 213 217 220 223 225 228 228 224 223 222 222 230 241 245 247 243 235 231 231 239 250 249 242 242
223 212 190 192 196 199 215 217 198 178 169 166 167 166 164 167 172 174 176 176 173 172 172 170 171 170 169 175 172 157 152 149 139 125 115 115 117 117 120 79 42 67 82 91 122 184 196 203 210 214 215 216 213 207 202 199 197 202 209 211 213 217 221 224 224 224 227 226 220 219 221 224 233 242 244 243 239 233 233 232 239 248 247 246 248
214 212 205 195 183 185 198 200 189 174 166 163 166 168 166 167 175 178 179 180 177 177 178 179 187 188 182 185 185 176 173 169 154 138 130 125 117 135 167 276 296 332 356 355 358 352 353 219 216 216 216 218 217 210 205 204 201 199 205 212 217 221 225 224 222 223 225 222 217 217 224 231 239 242 245 248 245 241 245 245 240 235 239 250 254
192 193 194 184 174 180 186 180 172 169 168 168 168 173 174 173 177 183 182 181 182 182 183 189 195 192 186 189 194 197 198 193 183 167 154 173 313 301 293 281 268 270 283 299 330 351 357 356 269 227 219 218 216 211 202 200 200 199 204 214 221 227 231 229 227 228 227 225 222 222 229 239 248 251 249 248 246 245 248 250 247 234 230 247 252
191 187 183 177 174 177 177 168 165 172 176 174 173 178 182 180 178 181 182 182 185 185 186 192 191 185 185 194 200 206 213 215 221 246 297 315 313 304 294 282 267 251 246 256 272 294 298 296 268 235 220 218 218 212 203 199 202 206 214 223 228 232 234 234 233 232 231 231 229 228 229 233 240 246 245 242 241 243 249 252 251 245 240 244 234
193 186 181 178 177 175 171 169 170 176 180 178 179 184 186 185 181 181 182 185 190 191 190 189 186 184 192 201 205 211 218 228 245 269 297 312 312 307 304 293 274 256 246 243 245 263 272 253 164 205 212 220 230 224 210 205 205 207 216 225 228 227 228 232 234 234 235 236 231 227 224 223 227 231 231 229 226 228 237 244 247 248 245 236 219
188 183 182 182 180 175 173 175 174 177 181 181 183 188 189 189 186 185 187 189 194 195 192 189 188 192 201 206 210 217 226 239 260 278 297 309 313 314 321 318 293 267 254 248 236 242 257 253 179 181 204 215 227 224 210 206 205 201 205 214 220 222 228 237 239 236 235 234 231 227 225 225 228 229 224 221 219 220 228 236 244 244 226 211 212
183 182 180 182 181 180 181 180 175 176 180 183 186 189 192 193 192 191 190 194 199 198 197 196 196 202 210 214 216 222 232 249 271 287 298 305 311 316 321 320 297 268 252 250 238 228 238 235 200 179 205 217 212 199 192 196 202 200 200 213 228 238 241 240 236 233 232 234 234 233 234 235 233 230 226 223 222 223 229 236 244 243 224 205 208
180 180 181 185 187 188 188 182 177 177 179 186 192 192 193 195 194 193 193 198 204 205 204 203 205 212 218 220 222 225 234 253 279 291 294 296 302 310 314 304 274 253 239 236 230 223 226 220 193 166 174 197 182 178 181 184 191 196 203 218 236 244 241 227 216 219 226 233 239 240 242 242 238 231 226 226 226 228 237 241 239 239 232 216 207
178 180 183 189 193 195 192 187 187 189 187 191 198 197 197 198 198 198 200 204 210 211 209 209 212 217 219 222 228 231 238 255 275 282 283 288 294 302 308 300 264 234 220 211 209 214 214 204 183 163 155 159 161 167 174 180 185 191 200 210 218 224 224 211 204 209 215 221 230 236 237 236 235 231 229 229 233 241 250 253 250 239 225 217 204
179 181 189 198 203 203 198 196 203 206 201 200 203 204 205 208 209 211 212 214 217 215 213 214 217 219 220 223 228 234 244 257 267 273 278 284 292 302 309 310 250 203 199 191 191 205 204 190 171 157 148 147 156 168 174 179 184 189 194 196 198 208 202 192 195 200 205 208 211 220 227 229 231 239 243 242 243 248 255 266 277 267 209 193 189
181 189 201 209 210 207 203 204 209 214 213 208 206 208 211 215 217 219 221 224 226 225 223 223 224 224 224 226 232 241 248 257 264 271 279 286 294 305 315 323 348 162 171 174 182 194 191 176 161 150 144 145 157 172 175 174 177 181 189 191 187 200 200 183 181 189 197 202 206 216 226 230 231 237 244 246 247 250 257 274 291 295 195 179 176
190 203 210 211 208 205 205 207 210 216 219 215 211 212 213 217 222 226 228 229 231 232 231 232 232 231 228 229 238 245 250 258 264 269 279 290 296 303 315 320 304 165 168 174 180 184 176 164 156 147 143 148 158 168 169 166 168 172 180 182 174 184 185 172 174 184 191 196 204 214 223 230 231 232 236 242 245 250 259 272 282 290 253 196 175
201 209 211 209 203 201 204 207 211 218 222 219 215 214 212 216 226 230 231 233 235 233 232 234 236 235 232 234 240 243 250 259 261 265 277 284 290 299 305 303 277 187 180 183 185 183 172 158 154 147 144 151 157 159 157 158 162 166 173 176 178 188 186 179 185 194 194 194 201 211 221 226 227 225 227 233 241 246 251 255 257 264 254 211 185
200 207 211 208 202 201 203 205 210 216 221 221 216 213 214 218 225 230 232 236 239 237 234 233 232 233 235 238 238 239 248 256 251 254 266 266 278 291 290 288 279 205 182 184 191 187 170 155 153 149 144 145 147 147 147 147 148 147 149 155 167 182 186 186 194 201 197 191 194 206 217 221 217 212 211 215 222 224 223 223 234 249 249 223 210
198 203 207 206 204 203 203 205 207 212 216 214 210 211 215 219 224 228 230 233 236 236 236 233 229 230 234 236 235 238 245 248 241 238 236 246 268 277 271 272 274 221 186 183 191 186 167 155 152 146 140 138 139 140 138 133 128 124 123 131 145 158 169 175 180 185 184 179 179 186 200 208 205 198 197 203 213 219 220 221 228 242 249 242 241
200 205 208 207 205 204 207 208 208 213 215 210 207 211 216 221 226 228 231 233 232 231 233 232 228 227 228 228 232 238 242 241 232 223 220 237 256 251 244 241 217 201 187 183 187 180 164 152 146 142 137 138 139 136 132 127 123 120 118 118 127 139 147 150 154 162 167 166 165 168 179 189 191 191 197 208 228 243 247 242 239 248 254 251 250
203 209 212 213 210 207 209 210 210 216 220 216 214 215 220 225 228 230 231 231 225 222 224 226 225 223 220 224 233 236 239 239 226 215 217 230 236 220 212 193 163 177 183 182 181 174 161 150 144 142 139 141 142 136 131 130 129 129 124 120 128 141 145 147 152 158 161 161 160 164 175 185 190 197 209 226 246 259 265 259 256 261 268 267 264
205 208 209 213 216 214 213 214 214 215 213 213 216 221 226 227 227 229 229 225 222 222 224 225 223 217 208 213 228 231 230 233 225 218 220 220 214 201 188 167 151 162 175 180 179 174 163 153 148 146 144 146 147 139 137 137 139 142 140 137 145 154 154 153 156 161 165 166 168 174 187 201 210 218 229 245 261 271 276 273 267 268 273 276 274
207 206 205 213 219 218 214 215 214 209 207 213 221 232 237 230 223 224 224 224 226 228 231 231 227 219 205 201 214 223 225 227 223 220 218 207 197 188 175 160 152 157 169 176 178 179 174 164 159 157 154 156 157 152 147 146 148 155 157 156 160 167 168 165 167 174 178 184 192 200 213 230 243 251 260 269 275 279 282 283 282 281 282 282 279
206 204 205 213 217 214 213 213 210 206 214 232 237 240 242 238 227 219 218 222 223 224 230 230 226 226 218 203 206 214 215 217 218 215 211 203 192 180 166 154 151 159 166 171 178 185 186 180 173 171 170 172 175 173 167 163 164 171 177 178 178 181 184 184 187 194 198 206 217 228 240 252 260 267 272 277 280 283 286 288 290 292 293 292 289
203 205 208 212 214 215 219 222 221 218 222 234 238 234 233 237 233 228 226 223 216 214 216 211 206 215 215 209 211 208 197 202 212 211 208 203 190 179 165 150 149 157 162 167 177 185 193 197 193 189 190 191 193 194 192 190 188 190 196 200 201 201 203 206 207 211 217 226 237 246 251 256 262 266 270 274 279 283 288 290 290 291 292 293 292
205 208 212 214 216 222 229 233 234 230 225 227 227 222 218 221 226 231 233 230 226 220 207 193 192 208 212 215 219 207 187 193 203 206 208 204 193 189 177 156 149 151 156 168 181 187 195 204 207 208 210 211 212 213 215 216 216 216 217 220 224 226 228 230 233 236 238 239 243 250 255 259 261 264 268 272 276 281 288 291 290 287 284 286 289
209 211 215 216 218 221 226 230 231 228 227 226 221 214 211 211 215 221 224 228 235 228 207 195 202 211 210 213 214 205 193 194 195 195 200 198 195 197 191 174 161 157 164 179 189 193 197 205 214 220 223 225 227 228 229 231 232 234 236 240 243 246 248 249 250 253 254 254 254 256 259 261 262 264 267 271 274 280 285 288 287 285 282 283 288
207 212 214 215 217 220 223 226 225 224 225 225 219 211 210 214 216 215 215 220 223 217 215 220 215 205 197 198 201 200 199 202 200 195 195 197 201 204 202 195 185 181 185 190 196 200 201 206 214 221 226 229 232 234 236 238 240 243 247 250 251 252 253 255 256 257 258 260 261 262 264 265 267 268 270 272 274 278 281 283 283 281 279 280 284
199 205 209 212 215 219 222 223 222 222 223 219 214 212 214 220 221 217 214 217 217 218 227 230 216 204 196 194 197 199 200 206 208 202 199 202 207 211 214 215 213 210 207 204 206 210 209 211 215 219 223 225 229 234 238 240 243 247 252 255 257 257 257 257 259 260 261 263 264 266 267 268 268 269 270 271 272 274 276 277 277 277 276 278 282
204 202 203 208 211 213 215 216 215 216 217 214 213 215 218 221 221 220 219 219 219 222 228 226 218 212 208 208 213 212 207 208 210 210 210 212 215 217 222 227 228 226 224 220 219 219 218 221 223 225 227 225 225 229 234 238 241 244 247 250 254 257 259 259 261 263 264 266 269 271 273 273 273 272 271 270 270 271 272 271 271 273 274 276 279
222 211 202 203 206 209 209 208 207 208 208 209 210 212 215 218 221 224 226 225 225 226 226 225 223 222 222 225 228 228 224 221 219 220 222 226 229 230 231 232 233 235 239 242 241 234 231 236 242 245 247 245 239 237 237 240 242 242 243 244 246 248 251 253 256 259 261 264 268 270 272 273 274 274 274 274 272 270 269 269 269 271 273 274 275
237 228 212 204 204 206 205 203 203 203 202 204 206 209 212 216 221 226 228 228 229 229 228 227 227 229 232 232 232 233 234 232 230 230 232 235 239 240 240 239 240 244 250 255 255 250 247 252 255 256 258 259 258 256 253 251 251 249 247 246 245 245 247 250 253 255 258 261 264 265 266 268 270 271 272 273 271 265 262 264 269 273 275 275 274
238 238 232 220 210 205 203 201 198 194 192 195 200 206 211 214 218 222 225 228 230 230 230 231 230 231 232 233 233 232 232 233 234 236 237 238 241 241 241 241 241 244 249 253 255 254 255 258 258 258 260 260 261 263 263 262 261 260 259 258 257 257 256 256 257 258 261 263 263 264 265 266 269 270 269 269 268 263 258 261 270 274 275 275 275
224 227 230 229 223 213 207 204 200 198 199 201 204 208 214 219 220 218 219 223 224 224 228 232 234 234 233 233 234 233 231 231 231 232 233 235 238 240 242 243 243 245 250 254 257 259 261 263 263 262 262 261 261 264 265 265 264 264 265 265 267 268 267 265 266 267 268 269 268 268 267 267 269 271 270 268 267 264 262 265 270 272 273 276 276
217 220 223 225 227 224 217 212 211 214 219 221 222 223 225 228 225 217 214 216 218 220 224 232 239 241 240 241 239 237 234 231 230 233 235 237 239 240 242 244 246 249 253 256 258 259 260 261 262 263 263 262 261 260 262 263 264 266 267 267 267 267 266 266 267 268 269 270 271 270 270 269 268 268 268 267 266 265 264 265 267 270 273 277 276
231 232 226 223 225 227 227 226 224 221 219 219 222 225 229 233 234 232 232 232 232 234 235 237 242 244 245 246 244 240 235 230 229 232 235 236 239 241 243 246 248 250 252 254 255 256 256 257 258 259 261 261 261 260 260 261 262 263 265 266 266 266 265 266 266 266 267 269 270 269 269 269 268 266 266 266 266 266 264 264 267 271 272 273 274
233 228 220 215 216 220 224 226 227 226 225 226 228 231 233 235 236 239 240 238 236 238 238 238 240 241 241 242 241 239 237 234 233 234 236 238 240 243 246 249 251 252 253 254 254 255 255 256 257 259 260 261 261 261 261 262 263 263 264 264 265 265 266 266 266 266 266 266 267 268 268 268 267 266 265 265 266 266 266 266 269 271 271 272 272
208 204 205 207 209 213 217 221 224 227 229 231 232 233 233 235 235 237 239 238 236 235 235 235 237 238 237 237 238 238 238 239 240 241 243 245 248 250 253 255 257 258 259 259 259 259 260 261 261 262 262 262 262 263 263 264 265 266 266 266 266 266 267 267 266 265 264 265 266 267 267 267 266 265 264 264 265 267 267 267 269 271 273 272 264
197 197 201 204 208 212 214 216 219 222 224 226 226 227 228 230 232 235 239 242 244 243 243 244 245 247 248 247 247 246 246 246 247 248 250 252 255 258 259 260 260 261 262 263 264 265 266 266 266 265 264 264 264 264 265 267 268 268 267 267 266 266 266 265 264 264 265 265 265 264 264 266 266 265 264 264 265 266 266 267 266 269 272 265 246
208 208 208 210 213 217 219 221 223 226 228 229 230 230 231 232 234 238 241 245 248 250 251 252 252 253 253 253 253 253 253 254 254 255 257 258 260 261 262 263 264 265 266 267 268 268 268 268 267 266 265 265 265 265 266 267 267 268 268 267 267 266 264 263 264 264 264 263 261 259 260 262 263 263 264 264 265 264 264 266 266 267 268 258 237
220 219 218 217 218 221 225 229 232 235 237 238 238 239 240 241 243 246 249 251 253 253 254 254 254 254 253 253 254 256 257 259 260 261 263 264 265 266 267 268 269 269 270 270 270 270 270 270 269 268 266 265 265 266 267 267 267 267 267 267 267 267 265 264 263 263 262 260 257 255 256 258 260 262 263 263 264 265 265 266 266 264 260 249 231
237 230 227 223 219 220 226 230 234 236 239 242 244 245 247 249 251 253 255 256 256 257 257 258 258 258 258 259 260 261 262 264 265 265 266 266 267 268 268 268 268 269 269 269 269 269 269 268 268 268 267 266 265 266 266 267 267 267 267 266 265 265 264 263 262 261 260 258 255 252 253 256 259 262 264 263 264 266 267 266 267 262 249 235 223
259 247 239 235 231 230 233 237 239 242 244 246 248 250 251 252 253 254 255 255 256 256 257 257 258 259 260 261 263 263 264 265 265 265 266 266 266 266 266 266 266 266 266 266 266 267 266 266 266 266 266 266 265 264 264 264 264 264 264 264 263 262 261 260 260 259 258 256 255 254 255 258 260 261 262 262 264 267 269 270 268 256 238 226 220
259 252 245 241 240 241 243 245 247 250 252 253 254 254 254 254 253 254 254 255 256 256 257 258 258 259 260 261 262 262 262 263 263 264 265 265 266 266 266 266 266 265 265 265 265 266 266 266 265 265 265 265 264 263 262 261 260 260 260 260 260 260 259 259 259 259 258 257 257 257 256 256 256 257 260 262 265 268 271 272 264 246 230 222 220
250 251 252 251 248 246 248 251 254 256 258 260 260 259 257 256 256 256 257 256 256 256 257 258 259 260 261 262 263 263 263 264 264 265 265 266 266 267 267 267 267 267 267 267 267 267 267 267 267 266 265 264 264 263 262 261 260 259 258 258 258 257 257 258 258 258 257 255 255 254 252 251 251 253 257 260 263 266 266 262 252 239 228 222 221
251 252 257 259 259 257 257 259 263 266 266 265 265 264 263 262 260 259 258 258 260 261 262 263 263 264 265 266 267 268 268 268 268 268 269 269 269 270 270 271 271 272 272 272 271 270 269 269 268 268 268 267 265 264 263 262 262 261 259 258 257 256 256 255 254 254 253 251 250 249 248 248 249 251 253 255 258 258 256 251 242 234 227 223 222
262 260 260 262 266 268 269 270 272 272 271 268 267 269 270 271 271 269 269 272 274 275 275 276 276 276 277 277 277 276 276 275 275 275 274 274 274 275 276 275 275 276 277 277 276 274 273 272 271 270 271 270 269 267 266 265 264 264 262 260 258 257 255 252 251 251 250 247 246 245 244 244 245 246 249 252 253 251 249 244 237 230 226 223 224
278 275 269 266 266 266 270 273 273 271 269 268 268 270 272 274 274 275 277 280 282 283 285 286 286 287 286 285 284 283 282 281 280 280 279 278 277 278 279 280 280 280 279 279 279 279 279 278 276 274 273 273 272 272 270 267 266 265 264 263 261 258 255 251 248 249 249 246 241 239 240 242 244 245 249 253 252 248 245 240 233 228 226 224 224
Height
3120 3122 3123 3124 3125 3126 3127 3127 3128 3127 3127 3127 3127 3127 3128 3130 3131 3131 3131 3132 3133 3134 3135 3136 3138 3140 3141 3142 3143 3143 3144 3144 3145 3146 3146 3146 3146 3146 3146 3147 3147 3148 3149 3150 3150 3151 3151 3152 3153 3153 3154 3154 3155 3155 3156 3156 3157 3158 3159 3160 3160 3161 3162 3163 3162 3163 3164 3165 3165 3165 3165 3165 3166 3167 3168 3168 3168 3169 3169 3170 3170 3170 3171 3171 3171
3120 3121 3122 3123 3124 3125 3125 3126 3126 3126 3126 3126 3127 3128 3129 3130 3131 3131 3132 3132 3133 3134 3135 3137 3139 3141 3142 3143 3144 3144 3145 3145 3146 3147 3146 3146 3146 3145 3146 3146 3147 3147 3148 3148 3150 3151 3151 3151 3152 3153 3153 3154 3154 3155 3156 3156 3157 3158 3158 3159 3160 3160 3161 3162 3162 3163 3164 3164 3165 3165 3165 3165 3166 3166 3166 3166 3167 3168 3169 3170 3170 3170 3170 3170 3170
3119 3120 3121 3122 3123 3123 3124 3125 3125 3125 3125 3126 3127 3128 3129 3130 3131 3131 3132 3133 3133 3135 3136 3138 3140 3141 3142 3143 3144 3145 3146 3146 3147 3147 3147 3146 3146 3145 3145 3146 3146 3147 3147 3148 3149 3150 3150 3151 3151 3152 3152 3153 3154 3155 3156 3156 3157 3157 3157 3158 3159 3160 3161 3161 3162 3163 3163 3164 3164 3164 3164 3165 3165 3165 3164 3165 3166 3168 3169 3169 3170 3170 3170 3170 3169
3117 3118 3120 3121 3122 3122 3123 3123 3124 3124 3125 3126 3127 3128 3129 3130 3131 3132 3133 3133 3134 3135 3137 3139 3140 3141 3142 3143 3144 3145 3146 3146 3147 3147 3147 3147 3146 3146 3146 3146 3146 3147 3147 3148 3149 3149 3150 3150 3150 3150 3151 3152 3153 3154 3155 3156 3156 3156 3157 3158 3159 3159 3160 3161 3162 3162 3163 3163 3163 3163 3164 3164 3164 3164 3164 3165 3166 3168 3168 3169 3169 3169 3169 3169 3169
3116 3118 3119 3120 3120 3122 3122 3123 3123 3124 3125 3126 3127 3128 3130 3131 3132 3132 3133 3134 3135 3136 3137 3139 3140 3141 3142 3142 3143 3145 3146 3146 3147 3147 3148 3147 3147 3147 3147 3147 3147 3147 3147 3147 3148 3148 3149 3149 3149 3149 3151 3152 3152 3154 3155 3156 3156 3156 3156 3157 3158 3159 3160 3160 3161 3161 3162 3162 3163 3163 3163 3164 3164 3164 3164 3165 3167 3168 3168 3169 3170 3169 3169 3169 3169
3115 3117 3118 3118 3119 3121 3122 3122 3123 3124 3125 3126 3128 3129 3130 3131 3132 3133 3134 3135 3136 3137 3139 3140 3141 3142 3143 3143 3144 3145 3146 3146 3147 3148 3148 3148 3148 3147 3147 3147 3148 3148 3147 3147 3147 3148 3148 3149 3149 3149 3150 3151 3152 3153 3154 3155 3156 3155 3156 3157 3158 3158 3159 3160 3160 3160 3161 3161 3162 3162 3163 3164 3163 3164 3164 3165 3167 3168 3168 3169 3169 3169 3169 3169 3169
3113 3116 3117 3117 3118 3119 3121 3122 3122 3123 3125 3126 3127 3128 3129 3130 3132 3133 3134 3136 3137 3139 3140 3141 3142 3143 3144 3145 3145 3146 3146 3147 3147 3148 3148 3148 3148 3148 3148 3148 3148 3148 3148 3147 3147 3147 3148 3148 3149 3149 3150 3151 3152 3152 3153 3154 3155 3155 3155 3156 3157 3157 3158 3159 3159 3160 3160 3161 3161 3162 3163 3163 3163 3163 3164 3164 3166 3167 3168 3168 3168 3169 3169 3169 3168
3112 3114 3115 3116 3117 3118 3120 3121 3122 3123 3124 3126 3127 3128 3129 3130 3131 3133 3134 3136 3138 3140 3141 3142 3143 3144 3145 3145 3146 3146 3147 3148 3148 3149 3149 3149 3148 3148 3148 3148 3148 3148 3148 3147 3147 3146 3147 3147 3148 3149 3149 3150 3151 3152 3153 3154 3154 3154 3154 3155 3156 3157 3157 3158 3158 3159 3160 3160 3161 3162 3162 3162 3163 3163 3163 3163 3164 3166 3167 3168 3168 3168 3168 3167 3168
3111 3112 3113 3115 3116 3117 3119 3120 3121 3122 3124 3125 3126 3127 3129 3130 3131 3133 3135 3136 3138 3140 3141 3142 3144 3145 3145 3146 3146 3147 3148 3148 3149 3149 3149 3149 3149 3148 3148 3148 3148 3148 3148 3147 3147 3146 3146 3146 3147 3147 3148 3149 3150 3151 3153 3153 3154 3154 3155 3155 3156 3156 3156 3157 3158 3159 3159 3160 3160 3161 3162 3162 3162 3163 3163 3162 3163 3164 3165 3166 3167 3168 3167 3166 3167
3109 3111 3113 3114 3115 3117 3118 3120 3121 3122 3123 3125 3126 3127 3128 3130 3132 3133 3135 3136 3138 3139 3141 3142 3143 3145 3146 3146 3147 3147 3148 3148 3149 3149 3149 3149 3149 3148 3148 3147 3147 3147 3147 3147 3147 3147 3146 3146 3146 3146 3147 3148 3149 3150 3152 3153 3153 3154 3154 3155 3155 3156 3156 3157 3158 3158 3159 3159 3160 3160 3161 3161 3162 3163 3163 3162 3162 3163 3164 3164 3165 3167 3167 3166 3166
3107 3109 3112 3114 3115 3116 3118 3120 3121 3121 3123 3124 3125 3126 3128 3130 3132 3133 3135 3137 3138 3139 3141 3142 3144 3145 3146 3146 3147 3147 3147 3148 3148 3148 3148 3148 3148 3148 3148 3147 3146 3147 3147 3147 3147 3147 3146 3146 3146 3146 3146 3147 3147 3148 3150 3151 3152 3153 3153 3154 3154 3155 3156 3156 3157 3157 3158 3158 3159 3160 3160 3161 3161 3162 3163 3163 3163 3163 3164 3164 3164 3165 3167 3166 3165
3106 3108 3110 3112 3114 3116 3118 3119 3120 3121 3122 3123 3124 3126 3128 3130 3132 3134 3135 3137 3138 3139 3141 3142 3143 3144 3145 3146 3146 3147 3147 3147 3147 3147 3148 3148 3148 3148 3147 3147 3146 3145 3145 3146 3146 3146 3146 3145 3145 3145 3146 3146 3146 3147 3148 3149 3151 3152 3152 3153 3154 3154 3155 3155 3156 3156 3157 3157 3158 3159 3159 3160 3160 3161 3162 3163 3163 3163 3163 3164 3164 3165 3166 3166 3165
3106 3107 3109 3112 3114 3116 3117 3118 3119 3120 3121 3122 3124 3126 3128 3130 3132 3134 3135 3136 3137 3139 3140 3142 3143 3144 3145 3145 3145 3146 3146 3146 3146 3146 3147 3147 3146 3146 3146 3146 3145 3144 3144 3144 3145 3145 3145 3144 3144 3144 3145 3145 3146 3146 3147 3148 3150 3151 3152 3153 3153 3153 3154 3154 3155 3155 3156 3156 3157 3158 3158 3159 3160 3161 3162 3162 3162 3163 3163 3163 3163 3164 3165 3166 3165
3105 3107 3109 3112 3114 3115 3116 3117 3118 3119 3121 3122 3124 3126 3127 3129 3131 3133 3134 3136 3137 3138 3140 3141 3142 3143 3144 3144 3144 3145 3145 3145 3145 3145 3145 3145 3145 3145 3145 3145 3144 3143 3143 3143 3143 3144 3144 3144 3143 3143 3144 3145 3146 3146 3147 3148 3149 3150 3152 3152 3153 3153 3153 3153 3153 3154 3155 3155 3156 3157 3158 3159 3160 3161 3161 3162 3162 3163 3163 3163 3163 3164 3165 3165 3165
3104 3107 3109 3112 3113 3115 3116 3117 3118 3119 3120 3122 3123 3125 3126 3128 3130 3132 3133 3135 3136 3137 3139 3140 3141 3141 3142 3143 3143 3144 3144 3144 3145 3145 3145 3144 3144 3144 3144 3144 3143 3143 3143 3143 3142 3143 3143 3143 3143 3143 3144 3145 3146 3147 3147 3148 3149 3150 3151 3151 3152 3152 3152 3152 3152 3153 3154 3154 3155 3156 3157 3158 3159 3161 3161 3162 3162 3162 3163 3163 3163 3164 3164 3165 3165
3104 3106 3108 3111 3112 3114 3116 3117 3118 3119 3120 3121 3122 3124 3125 3127 3129 3130 3132 3133 3134 3136 3138 3139 3140 3140 3141 3141 3142 3143 3143 3144 3144 3144 3144 3144 3144 3143 3143 3142 3142 3142 3143 3143 3142 3142 3142 3142 3143 3143 3144 3144 3145 3146 3147 3148 3149 3149 3150 3150 3151 3151 3151 3151 3152 3152 3153 3154 3154 3155 3156 3157 3158 3159 3161 3162 3162 3162 3162 3162 3163 3164 3164 3164 3164
3104 3106 3108 3110 3111 3113 3115 3116 3117 3118 3118 3119 3121 3123 3125 3125 3127 3128 3130 3131 3132 3134 3136 3138 3139 3139 3140 3140 3141 3142 3142 3143 3143 3143 3143 3143 3142 3142 3142 3141 3141 3141 3141 3142 3142 3142 3142 3142 3142 3143 3144 3144 3145 3146 3147 3148 3148 3149 3149 3149 3150 3150 3151 3151 3152 3152 3153 3153 3154 3155 3155 3157 3158 3159 3160 3161 3161 3161 3161 3161 3162 3163 3164 3164 3164
3104 3106 3107 3108 3109 3111 3113 3115 3116 3116 3116 3118 3120 3122 3123 3125 3127 3128 3129 3130 3130 3132 3134 3136 3137 3138 3139 3139 3140 3140 3141 3141 3141 3142 3141 3141 3141 3141 3140 3140 3139 3139 3140 3141 3141 3141 3141 3141 3142 3142 3143 3144 3145 3145 3146 3147 3148 3148 3149 3149 3149 3150 3150 3151 3152 3152 3153 3153 3154 3155 3155 3156 3158 3159 3159 3160 3161 3161 3162 3161 3161 3162 3163 3164 3164
3103 3104 3105 3106 3107 3109 3111 3112 3113 3113 3114 3116 3118 3120 3121 3124 3126 3128 3129 3128 3128 3129 3131 3133 3135 3136 3137 3138 3138 3138 3139 3140 3140 3140 3140 3140 3139 3139 3139 3138 3138 3138 3139 3140 3140 3140 3140 3141 3141 3142 3143 3144 3144 3145 3146 3147 3147 3148 3148 3149 3149 3150 3150 3151 3152 3152 3153 3154 3154 3155 3155 3156 3157 3159 3159 3160 3161 3161 3161 3162 3161 3162 3162 3163 3164
3100 3102 3102 3103 3105 3106 3108 3110 3110 3110 3112 3114 3116 3117 3120 3122 3124 3126 3127 3128 3127 3127 3129 3130 3132 3133 3134 3136 3136 3137 3138 3138 3138 3139 3138 3138 3138 3138 3138 3137 3137 3138 3138 3139 3139 3140 3140 3140 3141 3141 3142 3143 3144 3144 3145 3146 3147 3148 3148 3149 3149 3150 3150 3151 3152 3152 3153 3154 3155 3155 3156 3156 3157 3158 3159 3159 3160 3160 3161 3161 3161 3162 3162 3163 3163
3098 3099 3100 3101 3101 3103 3104 3105 3107 3108 3109 3111 3112 3115 3117 3120 3122 3124 3126 3127 3127 3127 3127 3127 3129 3131 3133 3134 3135 3136 3137 3137 3137 3137 3137 3137 3137 3137 3137 3136 3136 3137 3137 3138 3139 3139 3140 3140 3141 3141 3142 3143 3144 3144 3145 3146 3147 3147 3148 3149 3149 3150 3150 3151 3152 3152 3153 3154 3155 3155 3156 3157 3157 3158 3159 3159 3160 3160 3161 3161 3162 3162 3162 3162 3162
3095 3095 3095 3095 3096 3098 3100 3102 3103 3103 3104 3106 3108 3112 3115 3117 3119 3122 3125 3126 3127 3127 3126 3126 3127 3130 3132 3133 3135 3135 3136 3136 3137 3137 3137 3137 3136 3136 3136 3135 3135 3135 3136 3137 3138 3139 3140 3140 3141 3141 3142 3143 3144 3144 3145 3146 3146 3147 3148 3149 3149 3150 3151 3151 3152 3153 3153 3154 3155 3156 3156 3157 3158 3159 3159 3160 3160 3161 3162 3162 3162 3162 3162 3162 3162
3092 3091 3091 3092 3094 3097 3099 3101 3101 3100 3101 3104 3106 3110 3113 3115 3117 3120 3123 3125 3126 3127 3126 3126 3127 3129 3130 3132 3134 3135 3136 3136 3137 3137 3137 3137 3136 3136 3136 3135 3135 3135 3135 3136 3138 3139 3139 3140 3141 3142 3143 3143 3144 3145 3145 3146 3147 3147 3148 3149 3150 3150 3151 3152 3153 3153 3154 3155 3155 3156 3157 3158 3159 3159 3160 3161 3161 3161 3162 3162 3162 3162 3162 3162 3162
3090 3090 3092 3094 3096 3098 3098 3099 3100 3101 3103 3106 3107 3108 3110 3112 3115 3118 3121 3123 3124 3125 3125 3124 3125 3127 3129 3132 3133 3135 3136 3136 3136 3136 3137 3137 3137 3136 3136 3135 3134 3134 3134 3136 3137 3138 3139 3140 3141 3142 3143 3143 3144 3145 3146 3146 3147 3148 3148 3149 3150 3151 3151 3152 3153 3154 3155 3155 3156 3157 3157 3158 3159 3160 3160 3161 3161 3161 3161 3162 3162 3162 3162 3162 3162
3089 3090 3092 3094 3096 3097 3097 3098 3099 3100 3103 3106 3106 3107 3108 3109 3112 3115 3117 3120 3121 3121 3121 3122 3123 3125 3127 3129 3132 3134 3135 3136 3136 3136 3136 3137 3136 3136 3135 3135 3134 3134 3134 3135 3136 3138 3139 3139 3141 3142 3142 3143 3144 3145 3146 3147 3147 3148 3149 3150 3151 3151 3152 3153 3154 3155 3155 3156 3157 3158 3158 3159 3159 3160 3160 3161 3161 3161 3161 3161 3161 3161 3161 3162 3161
3088 3089 3091 3093 3093 3095 3096 3096 3097 3099 3102 3105 3106 3107 3108 3108 3110 3112 3115 3117 3118 3119 3120 3122 3123 3125 3126 3126 3130 3133 3133 3134 3134 3135 3136 3136 3136 3135 3135 3134 3134 3133 3134 3134 3136 3137 3138 3139 3140 3141 3142 3143 3144 3145 3146 3146 3147 3148 3149 3150 3151 3152 3153 3153 3154 3155 3156 3156 3157 3158 3159 3159 3159 3160 3160 3160 3160 3160 3160 3160 3160 3160 3160 3160 3160
3087 3088 3089 3090 3091 3093 3093 3094 3097 3100 3103 3105 3106 3108 3110 3111 3111 3112 3113 3115 3117 3119 3120 3121 3123 3125 3126 3126 3127 3129 3130 3131 3133 3134 3135 3135 3135 3135 3134 3134 3134 3134 3134 3134 3135 3136 3137 3139 3139 3140 3141 3142 3143 3144 3145 3146 3147 3148 3149 3150 3151 3152 3153 3153 3154 3155 3156 3156 3157 3158 3158 3158 3158 3158 3159 3159 3159 3159 3159 3159 3159 3158 3158 3158 3158
3087 3088 3088 3089 3091 3092 3093 3094 3097 3100 3102 3104 3106 3108 3110 3112 3113 3114 3115 3117 3118 3119 3120 3122 3124 3125 3126 3127 3127 3127 3128 3131 3133 3133 3134 3134 3134 3134 3134 3133 3133 3133 3133 3134 3134 3135 3137 3138 3139 3140 3141 3142 3143 3144 3145 3146 3147 3148 3149 3149 3150 3151 3152 3153 3154 3155 3155 3156 3156 3157 3157 3157 3157 3157 3157 3157 3157 3157 3157 3157 3157 3157 3156 3155 3155
3087 3088 3089 3090 3091 3092 3093 3094 3096 3099 3101 3103 3105 3106 3108 3110 3112 3114 3116 3117 3118 3119 3120 3122 3124 3125 3126 3127 3128 3128 3129 3130 3132 3132 3133 3133 3133 3133 3133 3132 3132 3132 3132 3133 3134 3134 3136 3137 3138 3139 3140 3141 3142 3143 3144 3145 3146 3147 3148 3148 3149 3150 3151 3152 3153 3154 3155 3155 3156 3156 3156 3156 3156 3156 3156 3156 3155 3155 3155 3155 3155 3155 3155 3154 3153
3088 3089 3090 3091 3091 3092 3092 3093 3095 3097 3099 3101 3103 3104 3105 3107 3108 3110 3113 3114 3115 3117 3118 3118 3120 3123 3124 3126 3128 3128 3129 3129 3130 3130 3131 3132 3132 3132 3132 3132 3132 3132 3132 3133 3133 3134 3135 3136 3137 3138 3139 3140 3141 3142 3143 3144 3145 3146 3147 3147 3148 3148 3149 3150 3151 3152 3153 3153 3154 3154 3154 3154 3154 3154 3154 3154 3154 3153 3153 3153 3153 3153 3153 3152 3151
3088 3089 3090 3090 3090 3090 3091 3092 3094 3096 3098 3100 3102 3102 3102 3104 3105 3107 3110 3111 3113 3115 3116 3117 3118 3121 3122 3124 3126 3126 3127 3128 3129 3128 3129 3130 3130 3131 3131 3131 3131 3131 3131 3132 3133 3133 3134 3135 3136 3137 3137 3138 3140 3140 3141 3142 3143 3144 3145 3146 3146 3146 3147 3148 3149 3149 3150 3150 3150 3151 3151 3151 3151 3151 3152 3152 3152 3151 3151 3150 3150 3150 3150 3150 3149
3087 3088 3088 3088 3088 3088 3089 3091 3093 3095 3097 3099 3100 3100 3101 3103 3105 3107 3108 3109 3111 3114 3115 3116 3117 3119 3120 3121 3122 3123 3124 3126 3127 3126 3127 3128 3129 3129 3129 3130 3130 3130 3130 3131 3131 3132 3132 3133 3134 3135 3136 3137 3138 3138 3139 3140 3141 3142 3143 3143 3144 3144 3144 3145 3145 3146 3146 3146 3146 3147 3147 3147 3147 3147 3148 3148 3148 3148 3148 3147 3147 3147 3147 3146 3146
3087 3087 3086 3086 3086 3087 3088 3089 3091 3093 3095 3097 3099 3100 3101 3103 3105 3106 3107 3108 3110 3112 3113 3114 3116 3117 3118 3118 3120 3121 3122 3123 3123 3124 3124 3125 3126 3126 3126 3126 3127 3128 3128 3128 3129 3129 3130 3131 3132 3133 3134 3135 3136 3136 3137 3137 3138 3139 3140 3141 3141 3141 3142 3142 3142 3143 3142 3142 3143 3143 3143 3143 3144 3143 3143 3143 3143 3144 3144 3144 3143 3143 3143 3143 3143
3087 3086 3085 3085 3086 3087 3087 3088 3089 3091 3093 3095 3097 3098 3100 3102 3104 3105 3107 3108 3109 3110 3111 3112 3113 3115 3116 3117 3118 3119 3120 3120 3121 3121 3122 3122 3123 3123 3123 3124 3124 3125 3125 3125 3126 3127 3128 3129 3129 3130 3131 3132 3133 3134 3135 3135 3136 3136 3137 3137 3137 3138 3138 3139 3139 3139 3139 3139 3139 3139 3139 3139 3139 3139 3139 3139 3139 3138 3138 3139 3139 3139 3139 3139 3139
3088 3087 3087 3086 3087 3087 3088 3088 3089 3090 3091 3093 3095 3097 3099 3101 3103 3104 3105 3107 3108 3109 3110 3111 3112 3113 3114 3115 3116 3117 3118 3119 3119 3119 3120 3120 3121 3121 3121 3122 3122 3123 3123 3123 3124 3124 3125 3126 3126 3127 3128 3128 3129 3130 3131 3132 3132 3133 3133 3133 3133 3134 3134 3135 3135 3135 3135 3135 3135 3135 3135 3134 3134 3134 3133 3134 3134 3133 3132 3133 3133 3133 3133 3133 3133
3088 3088 3089 3089 3089 3089 3090 3090 3090 3091 3092 3093 3094 3095 3097 3099 3101 3102 3104 3105 3105 3106 3107 3108 3110 3111 3112 3113 3114 3115 3115 3116 3117 3117 3117 3118 3118 3118 3118 3119 3120 3120 3121 3121 3122 3122 3123 3123 3124 3124 3125 3125 3126 3126 3127 3127 3128 3129 3128 3128 3129 3129 3130 3130 3130 3131 3131 3131 3131 3130 3130 3129 3129 3128 3128 3129 3128 3127 3127 3128 3128 3127 3128 3128 3129
3088 3088 3089 3090 3090 3091 3092 3092 3093 3093 3094 3095 3095 3095 3096 3098 3099 3100 3101 3102 3103 3104 3105 3106 3107 3109 3110 3111 3111 3112 3113 3113 3114 3114 3114 3115 3115 3115 3115 3116 3117 3117 3118 3119 3119 3120 3120 3120 3121 3121 3122 3122 3123 3123 3123 3124 3124 3124 3124 3124 3124 3124 3124 3125 3125 3126 3126 3126 3126 3126 3124 3124 3124 3124 3124 3124 3124 3123 3123 3123 3123 3123 3123 3124 3124
3087 3088 3088 3089 3090 3091 3092 3093 3094 3094 3095 3096 3096 3096 3097 3098 3098 3099 3100 3100 3101 3102 3104 3105 3106 3107 3107 3108 3109 3110 3110 3110 3111 3111 3111 3111 3112 3112 3113 3113 3114 3115 3115 3116 3117 3117 3118 3118 3118 3118 3118 3119 3119 3120 3120 3120 3121 3121 3120 3121 3121 3120 3120 3120 3120 3121 3121 3121 3121 3121 3120 3120 3120 3120 3120 3120 3119 3119 3119 3118 3118 3118 3119 3119 3118
3087 3087 3088 3088 3089 3090 3091 3093 3093 3094 3095 3096 3096 3097 3098 3098 3098 3099 3100 3100 3101 3101 3102 3103 3104 3105 3106 3106 3107 3108 3108 3108 3108 3109 3109 3109 3110 3110 3111 3111 3112 3112 3113 3113 3114 3114 3115 3115 3115 3115 3115 3115 3116 3116 3117 3117 3117 3117 3116 3116 3116 3116 3115 3115 3116 3116 3116 3115 3115 3115 3115 3115 3115 3116 3116 3115 3115 3115 3114 3113 3113 3113 3114 3114 3113
3085 3086 3087 3087 3088 3089 3090 3091 3092 3093 3094 3094 3095 3096 3097 3097 3097 3098 3098 3099 3099 3100 3100 3101 3102 3102 3103 3103 3104 3105 3105 3106 3106 3106 3107 3107 3107 3108 3108 3108 3109 3109 3110 3110 3110 3111 3111 3112 3112 3112 3112 3111 3111 3112 3112 3112 3112 3112 3112 3111 3111 3110 3110 3111 3111 3111 3111 3110 3110 3110 3110 3110 3110 3110 3110 3110 3110 3110 3109 3108 3108 3109 3109 3109 3108
3084 3085 3086 3087 3087 3088 3089 3090 3090 3091 3092 3093 3094 3095 3095 3095 3096 3096 3096 3097 3098 3098 3099 3099 3100 3100 3100 3101 3101 3102 3102 3102 3103 3103 3103 3104 3104 3104 3105 3105 3105 3105 3105 3105 3106 3106 3107 3107 3108 3107 3107 3107 3106 3106 3106 3107 3107 3106 3106 3106 3105 3105 3105 3105 3105 3105 3105 3105 3104 3104 3104 3104 3104 3104 3105 3104 3104 3104 3103 3104 3104 3104 3104 3102 3102
3083 3084 3084 3085 3086 3087 3087 3088 3089 3089 3090 3091 3092 3092 3093 3093 3094 3094 3094 3095 3095 3096 3097 3098 3098 3099 3099 3099 3099 3099 3099 3099 3099 3098 3099 3099 3100 3100 3100 3101 3101 3101 3100 3100 3101 3101 3101 3101 3102 3102 3101 3101 3101 3101 3100 3101 3101 3101 3100 3100 3099 3099 3099 3099 3098 3098 3098 3099 3099 3099 3099 3099 3098 3098 3098 3098 3098 3098 3098 3098 3099 3099 3099 3097 3096
3082 3083 3083 3084 3085 3085 3086 3086 3087 3088 3088 3089 3090 3090 3090 3091 3091 3092 3092 3093 3094 3094 3095 3095 3096 3095 3095 3095 3095 3095 3095 3095 3094 3094 3094 3094 3095 3095 3095 3095 3095 3095 3095 3095 3094 3095 3094 3094 3095 3095 3095 3094 3094 3094 3094 3094 3094 3094 3094 3093 3093 3093 3094 3093 3092 3092 3092 3093 3093 3093 3093 3093 3093 3093 3093 3093 3093 3093 3093 3093 3094 3094 3094 3092 3092
3081 3082 3082 3083 3083 3084 3084 3084 3085 3086 3086 3086 3087 3087 3088 3088 3089 3090 3090 3091 3091 3091 3091 3091 3091 3091 3091 3091 3090 3090 3090 3090 3090 3090 3089 3089 3089 3089 3089 3089 3089 3088 3088 3088 3088 3087 3087 3087 3087 3087 3087 3087 3087 3086 3086 3086 3086 3086 3087 3087 3087 3087 3088 3087 3086 3086 3087 3087 3088 3088 3088 3088 3088 3088 3088 3087 3087 3088 3088 3089 3089 3089 3089 3089 3089
3080 3080 3081 3081 3082 3082 3082 3082 3083 3083 3083 3083 3084 3084 3085 3086 3087 3087 3087 3088 3088 3087 3087 3087 3086 3086 3086 3086 3085 3085 3085 3085 3085 3084 3084 3084 3083 3083 3083 3083 3082 3082 3081 3081 3080 3080 3080 3079 3079 3079 3079 3080 3080 3079 3079 3078 3078 3078 3079 3079 3080 3081 3081 3080 3080 3080 3081 3082 3082 3082 3082 3082 3082 3082 3082 3082 3083 3083 3083 3083 3083 3084 3084 3084 3085
3077 3078 3079 3079 3079 3080 3080 3080 3080 3081 3081 3081 3082 3082 3083 3083 3083 3084 3084 3084 3084 3083 3083 3083 3082 3082 3082 3081 3081 3081 3081 3080 3080 3079 3079 3078 3077 3077 3077 3076 3076 3075 3074 3074 3073 3073 3072 3072 3071 3071 3071 3071 3072 3072 3071 3071 3070 3071 3071 3071 3072 3073 3074 3074 3074 3074 3075 3076 3076 3076 3077 3077 3077 3077 3076 3077 3077 3078 3078 3078 3078 3079 3080 3081 3081
3075 3075 3076 3076 3077 3077 3077 3077 3078 3078 3078 3079 3079 3079 3080 3080 3080 3080 3080 3080 3079 3079 3079 3078 3078 3078 3078 3077 3077 3077 3076 3076 3075 3074 3073 3072 3071 3071 3070 3070 3069 3068 3068 3067 3066 3065 3065 3064 3063 3063 3063 3063 3063 3064 3064 3063 3063 3063 3063 3064 3064 3065 3066 3067 3067 3067 3068 3069 3070 3071 3071 3071 3071 3071 3070 3070 3071 3072 3072 3073 3074 3075 3077 3078 3079
3073 3072 3072 3073 3074 3075 3075 3075 3076 3076 3076 3076 3076 3076 3076 3076 3076 3076 3076 3075 3075 3075 3074 3074 3074 3073 3073 3072 3072 3071 3071 3070 3069 3068 3067 3066 3066 3065 3064 3063 3062 3061 3061 3060 3059 3058 3057 3056 3055 3055 3055 3055 3056 3056 3056 3055 3054 3055 3055 3056 3056 3057 3058 3060 3060 3061 3062 3062 3063 3064 3064 3065 3065 3065 3065 3065 3066 3066 3067 3068 3070 3072 3073 3075 3076
3071 3070 3070 3070 3070 3071 3072 3072 3073 3073 3073 3073 3072 3072 3072 3072 3072 3072 3072 3071 3071 3070 3070 3070 3069 3069 3068 3068 3067 3066 3065 3065 3064 3063 3062 3061 3060 3059 3058 3057 3056 3055 3054 3053 3052 3051 3051 3049 3049 3048 3047 3047 3048 3049 3049 3047 3046 3047 3048 3048 3049 3049 3051 3052 3054 3055 3054 3054 3054 3056 3057 3058 3059 3060 3061 3061 3061 3062 3063 3064 3066 3068 3070 3071 3072
3068 3068 3068 3067 3067 3068 3068 3068 3069 3069 3069 3069 3069 3068 3068 3068 3068 3067 3067 3066 3066 3065 3065 3064 3064 3063 3063 3062 3061 3061 3060 3059 3058 3058 3057 3056 3055 3054 3053 3052 3051 3050 3049 3047 3045 3044 3044 3043 3043 3042 3041 3040 3041 3042 3042 3041 3040 3040 3041 3041 3042 3042 3043 3045 3046 3048 3048 3047 3047 3048 3050 3052 3054 3055 3057 3057 3057 3058 3058 3060 3062 3064 3066 3067 3068
3065 3065 3065 3064 3064 3064 3064 3065 3065 3065 3065 3065 3065 3065 3065 3065 3064 3063 3063 3062 3062 3061 3060 3060 3059 3058 3058 3057 3056 3055 3055 3054 3053 3052 3052 3051 3050 3050 3048 3047 3046 3045 3044 3042 3041 3039 3038 3037 3037 3036 3036 3035 3035 3035 3035 3035 3035 3034 3034 3035 3035 3036 3036 3038 3039 3041 3041 3041 3041 3042 3044 3046 3048 3051 3052 3053 3053 3054 3055 3056 3058 3060 3061 3062 3063